Regional Weather Roundup
Issued by NWS Mt. Holly, NJ

Home | Current Version | Previous Version | Text Only | Print | Product List | Glossary On
Versions: 1 2 3 4 5 6 7 8 9 10 11 12 13 14 15 16 17 18 19 20 21 22 23 24 25 26 27
000
ASUS41 KPHI 291911
RWRPHI

REGIONAL WEATHER ROUNDUP
NATIONAL WEATHER SERVICE MOUNT HOLLY NJ
300 PM EDT SAT APR 29 2017

NOTE:  "FAIR" INDICATES FEW OR NO CLOUDS BELOW 12,000 FEET WITH NO
SIGNIFICANT WEATHER AND/OR OBSTRUCTIONS TO VISIBILITY.

 * = STATION DOES NOT REPORT PRECIPITATION (E.G. RAIN, SNOW, ETC.)
        OR FOG.

NJZ015>026-292000-
SOUTHERN NEW JERSEY

CITY           SKY/WX    TMP DP  RH WIND       PRES   REMARKS
POMONA         MOSUNNY   91  58  32 W16G28    29.99S HX  90
WILDWOOD*      PTSUNNY   86  65  49 W10       30.03R
MILLVILLE      MOSUNNY   88  64  44 W17G30    30.01S
WRIGHTSTOWN    SUNNY     85  65  51 W12       29.97S
MOUNT HOLLY    SUNNY     85  59  41 W10G22    30.00R
TRENTON        MOSUNNY   85  60  42 W17G29    30.01R

$$
NJZ001>014-292000-
NORTHERN NEW JERSEY

CITY           SKY/WX    TMP DP  RH WIND       PRES   REMARKS
SUSSEX         CLOUDY    80  61  52 VRB7G21   30.00R
ANDOVER*         N/A     80  60  50 SW10G18   30.00R
MORRISTOWN     MOSUNNY   84  63  48 W16G24    29.98R
NEWARK         CLOUDY    85  61  44 W24G31    29.96R
TETERBORO      CLOUDY    83  63  50 W10G28    29.95R
CALDWELL       CLOUDY    84  60  44 W12G23    29.98R
SOMERVILLE     MOSUNNY   84  62  47 W12G18    29.98R
ALLAIRE*       CLOUDY    84  62  47 W20       30.00R
TOMS RIVER*    MOSUNNY   88  62  41 W16G25    30.00S

$$
PAZ043-044-047-054-055-060>062-066>071-292000-
EASTERN PENNSYLVANIA

CITY           SKY/WX    TMP DP  RH WIND       PRES   REMARKS
PHILADELPHIA   PTSUNNY   87  62  43 SW17      30.02R
NORTH PHILA    SUNNY     86  61  42 W20G25    30.02R
BLUE BELL*     SUNNY     81  61  50 W9G20     30.04R
DOYLESTOWN     MOSUNNY   83  61  47 W14G29    30.02R
QUAKERTOWN*    CLOUDY    82  63  51 W7G18     30.04R
PERKASIE*      FAIR      81  59  47 SW14G22   30.05R
POTTSTOWN      CLOUDY    83  60  45 W9G17     30.05R
LANCASTER      CLOUDY    80  65  59 W15       30.07R
COATESVILLE    PTSUNNY   82  63  51 NW15G22   30.08R
READING        CLOUDY    81  63  54 W15G24    30.04R
ALLENTOWN      PTSUNNY   82  62  50 W13G22    30.03R
MOUNT POCONO   PTSUNNY   71  59  65 W22G31    30.07R
HAZLETON       CLOUDY    72  61  68 W10G17    30.13R
LEHIGHTON      FAIR      79  59  50 W15G21    30.06R
WILKES BARRE   CLOUDY    75  60  59 W21G28    30.05R

$$
DEZALL-MDZ008-012-015-019-020-292000-
DELAWARE AND EASTERN MARYLAND

CITY           SKY/WX    TMP DP  RH WIND       PRES   REMARKS
WILMINGTON     CLOUDY    85  65  51 W12       30.03R
DOVER          MOSUNNY   88  81  80 W15       30.01R HX 107
GEORGETOWN     MOSUNNY   90  68  48 SW14      30.03S HX  94
EASTON         MOSUNNY   86  66  51 SW13G23   30.08S
ABERDEEN       CLOUDY    88  65  45 W13       30.04R
PATUXENT       PTSUNNY   87  75  67 W13       30.05F HX  96
OCEAN CITY     MOSUNNY   87  71  58 SW14      30.05S HX  93
WALLOPS ISLAND MOSUNNY   85  72  65 W12       30.07S HX  91
CAMBRIDGE      SUNNY     86  68  54 VRB7G16   30.05S
SALISBURY      MOSUNNY   86  69  56 W15       30.05R HX  90

$$
PAZ001-021-NYZ056-072-MDZ011-DCZ001-292000-
OTHER NEARBY LOCATIONS

CITY           SKY/WX    TMP DP  RH WIND       PRES   REMARKS
HARRISBURG     CLOUDY    81  65  58 NW8       30.06R
STATE COLLEGE  CLOUDY    70  61  73 W20G25    30.16R
WILLIAMSPORT   PTSUNNY   72  61  68 W14       30.10R
BINGHAMTON     CLOUDY    58  50  75 NW13      30.10R
NEW YORK CITY  PTSUNNY   84  60  44 VRB7G17   29.98R
BALTIMORE      PTSUNNY   89  65  44 SW14      30.03R HX  91
WASHINGTON DC  PTSUNNY   90  70  51 S13       30.05S HX  95

$$




USA.gov is the U.S. government's official web portal to all federal, state and local government web resources and services.